Time,TemperatureF,DewpointF,PressureIn,WindDirection,WindDirectionDegrees,WindSpeedMPH,WindSpeedGustMPH,Humidity,HourlyPrecipIn,Conditions,Clouds,dailyrainin,SoftwareType,DateUTC
2013-08-23 00:01:00,75.6,71.5,29.56,SSW,213,0.0,0.0,87,0.00,,,0.00,Wunderground v.1.15,2013-08-23 05:01:00,
2013-08-23 00:07:00,75.4,71.3,29.56,SSW,213,0.0,0.0,87,0.00,,,0.00,Wunderground v.1.15,2013-08-23 05:07:00,
2013-08-23 00:12:00,75.3,71.2,29.56,SSW,213,0.0,0.0,87,0.00,,,0.00,Wunderground v.1.15,2013-08-23 05:12:00,
2013-08-23 00:17:00,75.1,71.3,29.57,SSW,213,0.0,0.0,88,0.00,,,0.00,Wunderground v.1.15,2013-08-23 05:17:00,
2013-08-23 00:23:00,75.0,71.2,29.57,SSW,213,0.0,0.0,88,0.00,,,0.00,Wunderground v.1.15,2013-08-23 05:23:00,
2013-08-23 00:28:00,74.8,71.0,29.57,SSW,213,0.0,0.0,88,0.00,,,0.00,Wunderground v.1.15,2013-08-23 05:28:00,
2013-08-23 00:33:00,74.7,70.9,29.57,SSW,213,0.0,0.0,88,0.00,,,0.00,Wunderground v.1.15,2013-08-23 05:33:00,
2013-08-23 00:39:00,74.6,70.8,29.58,SSW,213,0.0,0.0,88,0.00,,,0.00,Wunderground v.1.15,2013-08-23 05:39:00,
2013-08-23 00:49:00,74.3,70.8,29.57,SSW,213,0.0,0.0,89,0.00,,,0.00,Wunderground v.1.15,2013-08-23 05:49:00,
2013-08-23 00:55:00,74.1,70.6,29.57,SSW,213,0.0,0.0,89,0.00,,,0.00,Wunderground v.1.15,2013-08-23 05:55:00,
2013-08-23 01:00:00,-90.0,-91.5,29.57,SSW,213,0.0,0.0,89,0.00,,,0.00,Wunderground v.1.15,2013-08-23 06:00:00,
2013-08-23 01:06:00,73.9,70.8,29.57,SSW,213,0.0,0.0,90,0.00,,,0.00,Wunderground v.1.15,2013-08-23 06:06:00,
2013-08-23 01:12:00,73.9,70.8,29.57,SSW,213,0.0,0.0,90,0.00,,,0.00,Wunderground v.1.15,2013-08-23 06:12:00,
2013-08-23 01:17:00,73.8,70.7,29.57,SSW,213,0.0,0.0,90,0.00,,,0.00,Wunderground v.1.15,2013-08-23 06:17:00,
2013-08-23 01:22:00,73.8,70.7,29.57,SSW,213,0.0,0.0,90,0.00,,,0.00,Wunderground v.1.15,2013-08-23 06:22:00,
2013-08-23 01:28:00,73.6,70.5,29.57,SSW,213,0.0,0.0,90,0.00,,,0.00,Wunderground v.1.15,2013-08-23 06:28:00,
2013-08-23 01:33:00,73.6,70.5,29.57,SSW,213,0.0,0.0,90,0.00,,,0.00,Wunderground v.1.15,2013-08-23 06:33:00,
2013-08-23 01:38:00,73.4,70.3,29.57,SSW,213,0.0,0.0,90,0.00,,,0.00,Wunderground v.1.15,2013-08-23 06:38:00,
2013-08-23 01:44:00,73.4,70.0,29.57,SSW,213,0.0,0.0,89,0.00,,,0.00,Wunderground v.1.15,2013-08-23 06:44:00,
2013-08-23 01:49:00,73.1,70.0,29.57,SSW,213,0.0,0.0,90,0.00,,,0.00,Wunderground v.1.15,2013-08-23 06:49:00,
2013-08-23 01:54:00,73.1,70.0,29.57,SSW,213,0.0,0.0,90,0.00,,,0.00,Wunderground v.1.15,2013-08-23 06:54:00,
2013-08-23 02:00:00,72.9,69.8,29.57,SSW,213,0.0,0.0,90,0.00,,,0.00,Wunderground v.1.15,2013-08-23 07:00:00,
2013-08-23 02:06:00,72.8,70.0,29.57,SSW,213,0.0,2.0,91,0.00,,,0.00,Wunderground v.1.15,2013-08-23 07:06:00,
2013-08-23 02:14:00,72.9,69.1,29.56,SSW,199,0.0,0.0,88,0.00,,,0.00,Wunderground v.1.15,2013-08-23 07:14:00,
2013-08-23 02:20:00,72.6,69.5,29.56,SSW,213,0.0,0.0,90,0.00,,,0.00,Wunderground v.1.15,2013-08-23 07:20:00,
2013-08-23 02:25:00,72.5,69.7,29.56,SSW,213,0.0,0.0,91,0.00,,,0.00,Wunderground v.1.15,2013-08-23 07:25:00,
2013-08-23 02:30:00,72.4,69.6,29.56,SSW,200,0.0,2.0,91,0.00,,,0.00,Wunderground v.1.15,2013-08-23 07:30:00,
2013-08-23 02:36:00,72.6,-99.9,29.56,SSW,213,0.0,1.0,255,0.00,,,0.00,Wunderground v.1.15,2013-08-23 07:36:00,
2013-08-23 02:41:00,72.1,69.3,29.56,SSW,213,0.0,0.0,91,0.00,,,0.00,Wunderground v.1.15,2013-08-23 07:41:00,
2013-08-23 02:46:00,72.0,69.2,29.56,SSW,213,0.0,3.0,91,0.00,,,0.00,Wunderground v.1.15,2013-08-23 07:46:00,
2013-08-23 02:52:00,71.9,69.1,29.56,SSW,213,0.0,0.0,91,0.00,,,0.00,Wunderground v.1.15,2013-08-23 07:52:00,
2013-08-23 02:57:00,71.8,68.7,29.57,SSW,213,0.0,0.0,90,0.00,,,0.00,Wunderground v.1.15,2013-08-23 07:57:00,
2013-08-23 03:02:00,71.7,68.6,29.57,SSW,213,0.0,0.0,90,0.00,,,0.00,Wunderground v.1.15,2013-08-23 08:02:00,
2013-08-23 03:08:00,72.6,69.5,29.57,SSW,201,0.0,2.0,90,0.00,,,0.00,Wunderground v.1.15,2013-08-23 08:08:00,
2013-08-23 03:13:00,71.4,68.6,29.57,SSW,213,0.0,0.0,91,0.00,,,0.00,Wunderground v.1.15,2013-08-23 08:13:00,
2013-08-23 03:18:00,71.3,68.5,29.57,SSW,213,0.0,3.0,91,0.00,,,0.00,Wunderground v.1.15,2013-08-23 08:18:00,
2013-08-23 03:24:00,71.1,68.3,29.57,SSW,213,0.0,3.0,91,0.00,,,0.00,Wunderground v.1.15,2013-08-23 08:24:00,
2013-08-23 03:29:00,71.0,68.2,29.58,SSW,213,0.0,4.0,91,0.00,,,0.00,Wunderground v.1.15,2013-08-23 08:29:00,
2013-08-23 03:35:00,71.0,68.2,29.58,SSW,213,0.0,2.0,91,0.00,,,0.00,Wunderground v.1.15,2013-08-23 08:35:00,
2013-08-23 03:40:00,70.9,68.1,29.58,SSW,213,0.0,0.0,91,0.00,,,0.00,Wunderground v.1.15,2013-08-23 08:40:00,
2013-08-23 03:45:00,70.8,68.0,29.58,SSW,213,0.0,0.0,91,0.00,,,0.00,Wunderground v.1.15,2013-08-23 08:45:00,
2013-08-23 03:51:00,70.8,68.0,29.58,SSW,213,0.0,0.0,91,0.00,,,0.00,Wunderground v.1.15,2013-08-23 08:51:00,
2013-08-23 03:57:00,70.7,67.9,29.58,SSW,213,0.0,0.0,91,0.00,,,0.00,Wunderground v.1.15,2013-08-23 08:57:00,
2013-08-23 04:03:00,70.6,67.8,29.58,SSW,213,0.0,0.0,91,0.00,,,0.00,Wunderground v.1.15,2013-08-23 09:03:00,
2013-08-23 04:08:00,70.5,67.7,29.58,SSW,213,0.0,5.0,91,0.00,,,0.00,Wunderground v.1.15,2013-08-23 09:08:00,
2013-08-23 04:14:00,70.5,67.7,29.58,SSW,213,0.0,1.0,91,0.00,,,0.00,Wunderground v.1.15,2013-08-23 09:14:00,
2013-08-23 04:27:00,70.4,67.6,29.58,SSW,213,0.0,0.0,91,0.00,,,0.00,Wunderground v.1.15,2013-08-23 09:27:00,
2013-08-23 04:33:00,70.3,67.5,29.58,SSW,213,0.0,2.0,91,0.00,,,0.00,Wunderground v.1.15,2013-08-23 09:33:00,
2013-08-23 04:38:00,70.3,67.5,29.58,SSW,213,0.0,3.0,91,0.00,,,0.00,Wunderground v.1.15,2013-08-23 09:38:00,
2013-08-23 04:43:00,70.2,67.4,29.58,SSW,213,0.0,0.0,91,0.00,,,0.00,Wunderground v.1.15,2013-08-23 09:43:00,
2013-08-23 04:49:00,70.2,67.4,29.58,SSW,213,1.0,4.0,91,0.00,,,0.00,Wunderground v.1.15,2013-08-23 09:49:00,
2013-08-23 04:54:00,70.1,67.3,29.58,SSW,213,1.0,1.0,91,0.00,,,0.00,Wunderground v.1.15,2013-08-23 09:54:00,
2013-08-23 04:59:00,70.1,67.3,29.58,SSW,213,0.0,1.0,91,0.00,,,0.00,Wunderground v.1.15,2013-08-23 09:59:00,
2013-08-23 05:05:00,69.9,67.2,29.58,SSW,213,0.0,3.0,91,0.00,,,0.00,Wunderground v.1.15,2013-08-23 10:05:00,
2013-08-23 05:10:00,69.9,67.2,29.58,SSW,213,0.0,0.0,91,0.00,,,0.00,Wunderground v.1.15,2013-08-23 10:10:00,
2013-08-23 05:15:00,69.8,67.4,29.58,SSW,213,0.0,0.0,92,0.00,,,0.00,Wunderground v.1.15,2013-08-23 10:15:00,
2013-08-23 05:20:00,69.7,67.0,29.59,SSW,213,0.0,0.0,91,0.00,,,0.00,Wunderground v.1.15,2013-08-23 10:20:00,
2013-08-23 05:26:00,69.6,66.9,29.59,SSW,213,0.0,0.0,91,0.00,,,0.00,Wunderground v.1.15,2013-08-23 10:26:00,
2013-08-23 05:43:00,69.3,66.9,29.59,SSW,213,0.0,0.0,92,0.00,,,0.00,Wunderground v.1.15,2013-08-23 10:43:00,
2013-08-23 05:49:00,69.4,67.0,29.59,SSW,213,0.0,0.0,92,0.00,,,0.00,Wunderground v.1.15,2013-08-23 10:49:00,
2013-08-23 05:55:00,69.3,66.9,29.60,SSW,213,0.0,0.0,92,0.00,,,0.00,Wunderground v.1.15,2013-08-23 10:55:00,
2013-08-23 06:00:00,69.2,66.8,29.60,SSW,213,0.0,0.0,92,0.00,,,0.00,Wunderground v.1.15,2013-08-23 11:00:00,
2013-08-23 06:06:00,69.1,66.7,29.60,SSW,213,0.0,0.0,92,0.00,,,0.00,Wunderground v.1.15,2013-08-23 11:06:00,
2013-08-23 06:12:00,69.2,66.8,29.60,SSW,213,0.0,0.0,92,0.00,,,0.00,Wunderground v.1.15,2013-08-23 11:12:00,
2013-08-23 06:17:00,69.1,66.7,29.60,SSW,213,0.0,0.0,92,0.00,,,0.00,Wunderground v.1.15,2013-08-23 11:17:00,
2013-08-23 06:23:00,69.0,66.6,29.60,SSW,213,0.0,0.0,92,0.00,,,0.00,Wunderground v.1.15,2013-08-23 11:23:00,
2013-08-23 06:28:00,69.1,66.7,29.60,SSW,213,0.0,0.0,92,0.00,,,0.00,Wunderground v.1.15,2013-08-23 11:28:00,
2013-08-23 06:33:00,69.0,66.6,29.61,SSW,213,0.0,0.0,92,0.00,,,0.00,Wunderground v.1.15,2013-08-23 11:33:00,
2013-08-23 06:39:00,68.9,66.5,29.60,SSW,213,0.0,0.0,92,0.00,,,0.00,Wunderground v.1.15,2013-08-23 11:39:00,
2013-08-23 06:44:00,68.9,66.5,29.60,SSW,213,0.0,0.0,92,0.00,,,0.00,Wunderground v.1.15,2013-08-23 11:44:00,
2013-08-23 06:50:00,68.9,66.8,29.60,SSW,213,0.0,0.0,93,0.00,,,0.00,Wunderground v.1.15,2013-08-23 11:50:00,
2013-08-23 06:56:00,68.8,66.7,29.60,SSW,213,0.0,0.0,93,0.00,,,0.00,Wunderground v.1.15,2013-08-23 11:56:00,
2013-08-23 07:01:00,68.8,66.7,29.60,SSW,213,0.0,1.0,93,0.00,,,0.00,Wunderground v.1.15,2013-08-23 12:01:00,
2013-08-23 07:06:00,68.8,66.7,29.60,SSW,213,0.0,1.0,93,0.00,,,0.00,Wunderground v.1.15,2013-08-23 12:06:00,
2013-08-23 07:12:00,68.9,66.8,29.60,SSW,213,0.0,0.0,93,0.00,,,0.00,Wunderground v.1.15,2013-08-23 12:12:00,
2013-08-23 07:17:00,69.0,66.9,29.61,SSW,213,0.0,0.0,93,0.00,,,0.00,Wunderground v.1.15,2013-08-23 12:17:00,
2013-08-23 07:23:00,69.0,66.9,29.61,SSW,213,0.0,0.0,93,0.00,,,0.00,Wunderground v.1.15,2013-08-23 12:23:00,
2013-08-23 07:28:00,69.1,67.0,29.61,SSW,213,0.0,0.0,93,0.00,,,0.00,Wunderground v.1.15,2013-08-23 12:28:00,
2013-08-23 07:33:00,69.3,67.2,29.61,SSW,213,0.0,0.0,93,0.00,,,0.00,Wunderground v.1.15,2013-08-23 12:33:00,
2013-08-23 07:39:00,69.4,67.3,29.61,SSW,213,0.0,0.0,93,0.00,,,0.00,Wunderground v.1.15,2013-08-23 12:39:00,
2013-08-23 07:44:00,69.6,67.5,29.61,SSW,213,0.0,0.0,93,0.00,,,0.00,Wunderground v.1.15,2013-08-23 12:44:00,
2013-08-23 07:49:00,69.8,67.7,29.61,SSW,213,0.0,0.0,93,0.00,,,0.00,Wunderground v.1.15,2013-08-23 12:49:00,
2013-08-23 07:55:00,70.0,67.6,29.61,SSW,213,0.0,0.0,92,0.00,,,0.00,Wunderground v.1.15,2013-08-23 12:55:00,
2013-08-23 08:00:00,70.3,67.5,29.61,SSW,213,0.0,0.0,91,0.00,,,0.00,Wunderground v.1.15,2013-08-23 13:00:00,
2013-08-23 08:06:00,70.7,67.6,29.61,SSW,213,0.0,3.0,90,0.00,,,0.00,Wunderground v.1.15,2013-08-23 13:06:00,
2013-08-23 08:12:00,71.0,68.2,29.61,SSW,213,0.0,0.0,91,0.00,,,0.00,Wunderground v.1.15,2013-08-23 13:12:00,
2013-08-23 08:17:00,71.3,68.5,29.61,SSW,213,0.0,3.0,91,0.00,,,0.00,Wunderground v.1.15,2013-08-23 13:17:00,
2013-08-23 08:23:00,71.7,68.6,29.61,SSW,213,0.0,0.0,90,0.00,,,0.00,Wunderground v.1.15,2013-08-23 13:23:00,
2013-08-23 08:29:00,72.1,68.7,29.61,SSW,213,0.0,0.0,89,0.00,,,0.00,Wunderground v.1.15,2013-08-23 13:29:00,
2013-08-23 08:34:00,72.5,68.7,29.61,SSW,213,0.0,3.0,88,0.00,,,0.00,Wunderground v.1.15,2013-08-23 13:34:00,
2013-08-23 08:40:00,72.9,68.8,29.61,SSW,213,1.0,4.0,87,0.00,,,0.00,Wunderground v.1.15,2013-08-23 13:40:00,
2013-08-23 08:45:00,73.3,69.2,29.61,SSW,213,1.0,4.0,87,0.00,,,0.00,Wunderground v.1.15,2013-08-23 13:45:00,
2013-08-23 08:50:00,73.6,69.2,29.61,SSW,213,1.0,1.0,86,0.00,,,0.00,Wunderground v.1.15,2013-08-23 13:50:00,
2013-08-23 08:56:00,74.1,69.3,29.61,SSW,213,0.0,1.0,85,0.00,,,0.00,Wunderground v.1.15,2013-08-23 13:56:00,
2013-08-23 09:01:00,74.5,69.0,29.61,SSW,213,0.0,0.0,83,0.00,,,0.00,Wunderground v.1.15,2013-08-23 14:01:00,
2013-08-23 09:06:00,74.9,69.4,29.61,SSW,213,0.0,0.0,83,0.00,,,0.00,Wunderground v.1.15,2013-08-23 14:06:00,
2013-08-23 09:12:00,75.6,69.7,29.62,SSW,213,0.0,0.0,82,0.00,,,0.00,Wunderground v.1.15,2013-08-23 14:12:00,
2013-08-23 09:17:00,76.1,69.8,29.62,SSW,213,1.0,5.0,81,0.00,,,0.00,Wunderground v.1.15,2013-08-23 14:17:00,
2013-08-23 09:22:00,76.7,70.1,29.62,SSW,213,0.0,0.0,80,0.00,,,0.00,Wunderground v.1.15,2013-08-23 14:22:00,
2013-08-23 09:28:00,77.2,70.2,29.62,SSW,213,0.0,0.0,79,0.00,,,0.00,Wunderground v.1.15,2013-08-23 14:28:00,
2013-08-23 09:33:00,77.7,70.3,29.61,SSW,213,0.0,0.0,78,0.00,,,0.00,Wunderground v.1.15,2013-08-23 14:33:00,
2013-08-23 09:47:00,78.9,70.7,29.61,SSW,213,1.0,1.0,76,0.00,,,0.00,Wunderground v.1.15,2013-08-23 14:47:00,
2013-08-23 09:53:00,79.3,70.7,29.61,SSW,213,1.0,5.0,75,0.00,,,0.00,Wunderground v.1.15,2013-08-23 14:53:00,
2013-08-23 09:59:00,79.7,71.1,29.61,SSW,213,1.0,7.0,75,0.00,,,0.00,Wunderground v.1.15,2013-08-23 14:59:00,
2013-08-23 10:04:00,80.1,71.1,29.61,SSW,213,0.0,1.0,74,0.00,,,0.00,Wunderground v.1.15,2013-08-23 15:04:00,
2013-08-23 10:10:00,80.9,71.0,29.62,SSW,213,1.0,1.0,72,0.00,,,0.00,Wunderground v.1.15,2013-08-23 15:10:00,
2013-08-23 10:16:00,-999.9,-99.9,29.62,SSW,213,1.0,5.0,72,0.00,,,0.00,Wunderground v.1.15,2013-08-23 15:16:00,
2013-08-23 10:21:00,80.5,70.6,29.61,SSW,213,1.0,1.0,72,0.00,,,0.00,Wunderground v.1.15,2013-08-23 15:21:00,
2013-08-23 10:27:00,80.9,71.8,29.62,SSW,213,1.0,1.0,74,0.00,,,0.00,Wunderground v.1.15,2013-08-23 15:27:00,
2013-08-23 10:32:00,81.5,72.0,29.61,SSW,213,0.0,4.0,73,0.00,,,0.00,Wunderground v.1.15,2013-08-23 15:32:00,
2013-08-23 10:37:00,81.8,71.5,29.61,SSW,213,1.0,6.0,71,0.00,,,0.00,Wunderground v.1.15,2013-08-23 15:37:00,
2013-08-23 10:43:00,81.7,71.4,29.61,SSW,213,1.0,1.0,71,0.00,,,0.00,Wunderground v.1.15,2013-08-23 15:43:00,
2013-08-23 10:48:00,81.8,71.9,29.62,SSW,213,1.0,5.0,72,0.00,,,0.00,Wunderground v.1.15,2013-08-23 15:48:00,
2013-08-23 10:53:00,82.1,71.8,29.62,SSW,213,0.0,1.0,71,0.00,,,0.00,Wunderground v.1.15,2013-08-23 15:53:00,
2013-08-23 10:59:00,82.9,71.7,29.62,SSW,213,0.0,2.0,69,0.00,,,0.00,Wunderground v.1.15,2013-08-23 15:59:00,
2013-08-23 11:04:00,82.9,72.5,29.61,SSW,213,1.0,4.0,71,0.00,,,0.00,Wunderground v.1.15,2013-08-23 16:04:00,
2013-08-23 11:09:00,83.2,72.4,29.62,SSW,213,1.0,4.0,70,0.00,,,0.00,Wunderground v.1.15,2013-08-23 16:09:00,
2013-08-23 11:15:00,83.3,71.6,29.61,SSW,213,0.0,1.0,68,0.00,,,0.00,Wunderground v.1.15,2013-08-23 16:15:00,
2013-08-23 11:20:00,83.5,72.7,29.61,SSW,213,0.0,0.0,70,0.00,,,0.00,Wunderground v.1.15,2013-08-23 16:20:00,
2013-08-23 11:25:00,83.3,72.1,29.61,SSW,213,1.0,3.0,69,0.00,,,0.00,Wunderground v.1.15,2013-08-23 16:25:00,
2013-08-23 11:31:00,83.4,72.2,29.61,SSW,213,0.0,0.0,69,0.00,,,0.00,Wunderground v.1.15,2013-08-23 16:31:00,
2013-08-23 11:49:00,86.1,-99.9,29.61,SSW,213,1.0,1.0,255,0.00,,,0.00,Wunderground v.1.15,2013-08-23 16:49:00,
2013-08-23 11:54:00,85.1,73.3,29.61,SSW,213,0.0,0.0,68,0.00,,,0.00,Wunderground v.1.15,2013-08-23 16:54:00,
2013-08-23 11:59:00,85.4,72.7,29.61,SSW,213,0.0,1.0,66,0.00,,,0.00,Wunderground v.1.15,2013-08-23 16:59:00,
2013-08-23 12:05:00,85.5,73.7,29.61,SSW,213,0.0,1.0,68,0.00,,,0.00,Wunderground v.1.15,2013-08-23 17:05:00,
2013-08-23 12:10:00,85.7,73.5,29.60,SSW,213,0.0,2.0,67,0.00,,,0.00,Wunderground v.1.15,2013-08-23 17:10:00,
2013-08-23 12:16:00,86.2,73.0,29.60,SSW,213,0.0,2.0,65,0.00,,,0.00,Wunderground v.1.15,2013-08-23 17:16:00,
2013-08-23 12:22:00,86.2,72.6,29.60,SSW,213,0.0,0.0,64,0.00,,,0.00,Wunderground v.1.15,2013-08-23 17:22:00,
2013-08-23 12:27:00,86.6,73.4,29.60,SSW,213,0.0,1.0,65,0.00,,,0.00,Wunderground v.1.15,2013-08-23 17:27:00,
2013-08-23 12:32:00,86.7,72.6,29.60,SSW,213,0.0,0.0,63,0.00,,,0.00,Wunderground v.1.15,2013-08-23 17:32:00,
2013-08-23 12:38:00,87.0,72.4,29.60,SSW,213,1.0,3.0,62,0.00,,,0.00,Wunderground v.1.15,2013-08-23 17:38:00,
2013-08-23 12:43:00,87.1,73.4,29.60,SSW,213,0.0,1.0,64,0.00,,,0.00,Wunderground v.1.15,2013-08-23 17:43:00,
2013-08-23 12:59:00,87.1,73.9,29.60,SSW,213,0.0,0.0,65,0.00,,,0.00,Wunderground v.1.15,2013-08-23 17:59:00,
2013-08-23 13:11:00,87.5,72.9,29.60,SSW,213,0.0,0.0,62,0.00,,,0.00,Wunderground v.1.15,2013-08-23 18:11:00,
2013-08-23 13:17:00,87.6,73.4,29.60,SSW,213,0.0,1.0,63,0.00,,,0.00,Wunderground v.1.15,2013-08-23 18:17:00,
2013-08-23 13:23:00,88.2,73.0,29.59,SSW,213,0.0,2.0,61,0.00,,,0.00,Wunderground v.1.15,2013-08-23 18:23:00,
2013-08-23 13:33:00,88.4,72.7,29.59,SSW,213,0.0,0.0,60,0.00,,,0.00,Wunderground v.1.15,2013-08-23 18:33:00,
2013-08-23 13:41:00,88.8,73.1,29.59,SSW,213,0.0,0.0,60,0.00,,,0.00,Wunderground v.1.15,2013-08-23 18:41:00,
2013-08-23 13:46:00,89.0,71.8,29.59,SSW,213,0.0,1.0,57,0.00,,,0.00,Wunderground v.1.15,2013-08-23 18:46:00,
2013-08-23 13:52:00,89.3,73.6,29.59,SSW,213,0.0,2.0,60,0.00,,,0.00,Wunderground v.1.15,2013-08-23 18:52:00,
2013-08-23 13:57:00,89.6,72.3,29.59,SW,214,1.0,2.0,57,0.00,,,0.00,Wunderground v.1.15,2013-08-23 18:57:00,
2013-08-23 14:02:00,89.4,72.2,29.58,SSW,213,1.0,1.0,57,0.00,,,0.00,Wunderground v.1.15,2013-08-23 19:02:00,
2013-08-23 14:08:00,89.5,74.3,29.58,SSW,213,0.0,2.0,61,0.00,,,0.00,Wunderground v.1.15,2013-08-23 19:08:00,
2013-08-23 14:13:00,89.5,73.8,29.58,SSW,213,0.0,0.0,60,0.00,,,0.00,Wunderground v.1.15,2013-08-23 19:13:00,
2013-08-23 14:18:00,88.9,73.2,29.59,SSW,213,0.0,1.0,60,0.00,,,0.00,Wunderground v.1.15,2013-08-23 19:18:00,
2013-08-23 14:23:00,88.7,73.5,29.58,SSW,213,1.0,1.0,61,0.00,,,0.00,Wunderground v.1.15,2013-08-23 19:23:00,
2013-08-23 14:30:00,88.5,72.8,29.58,SSW,213,1.0,1.0,60,0.00,,,0.00,Wunderground v.1.15,2013-08-23 19:30:00,
2013-08-23 14:36:00,87.5,73.3,29.58,SSW,213,1.0,4.0,63,0.00,,,0.00,Wunderground v.1.15,2013-08-23 19:36:00,
2013-08-23 14:47:00,86.9,72.8,29.57,SSW,213,1.0,5.0,63,0.00,,,0.00,Wunderground v.1.15,2013-08-23 19:47:00,
2013-08-23 14:53:00,86.4,73.2,29.57,SSW,213,1.0,1.0,65,0.00,,,0.00,Wunderground v.1.15,2013-08-23 19:53:00,
2013-08-23 14:59:00,86.0,73.3,29.57,SSW,213,0.0,2.0,66,0.00,,,0.00,Wunderground v.1.15,2013-08-23 19:59:00,
2013-08-23 15:05:00,86.5,72.9,29.57,SSW,213,0.0,0.0,64,0.00,,,0.00,Wunderground v.1.15,2013-08-23 20:05:00,
2013-08-23 15:10:00,87.2,73.1,29.56,SSW,213,0.0,1.0,63,0.00,,,0.00,Wunderground v.1.15,2013-08-23 20:10:00,
2013-08-23 15:16:00,89.3,74.6,29.56,SSW,213,1.0,3.0,62,0.00,,,0.00,Wunderground v.1.15,2013-08-23 20:16:00,
2013-08-23 15:21:00,88.3,73.6,29.56,SSW,213,1.0,1.0,62,0.00,,,0.00,Wunderground v.1.15,2013-08-23 20:21:00,
2013-08-23 15:27:00,88.5,73.3,29.56,SSW,213,1.0,1.0,61,0.00,,,0.00,Wunderground v.1.15,2013-08-23 20:27:00,
2013-08-23 15:33:00,88.5,72.3,29.56,SSW,205,2.0,6.0,59,0.00,,,0.00,Wunderground v.1.15,2013-08-23 20:33:00,
2013-08-23 15:38:00,87.9,72.3,29.56,SSW,205,2.0,6.0,60,0.00,,,0.00,Wunderground v.1.15,2013-08-23 20:38:00,
2013-08-23 15:43:00,87.8,72.2,29.56,SSW,205,1.0,1.0,60,0.00,,,0.00,Wunderground v.1.15,2013-08-23 20:43:00,
2013-08-23 15:48:00,87.4,71.8,29.56,SSW,205,1.0,4.0,60,0.00,,,0.00,Wunderground v.1.15,2013-08-23 20:48:00,
2013-08-23 15:54:00,87.4,72.3,29.55,SSW,203,1.0,8.0,61,0.00,,,0.00,Wunderground v.1.15,2013-08-23 20:54:00,
2013-08-23 15:59:00,87.5,72.9,29.55,SSW,202,1.0,8.0,62,0.00,,,0.00,Wunderground v.1.15,2013-08-23 20:59:00,
2013-08-23 16:05:00,87.6,72.5,29.55,SSW,200,1.0,7.0,61,0.00,,,0.00,Wunderground v.1.15,2013-08-23 21:05:00,
2013-08-23 16:10:00,87.2,71.6,29.55,SSW,200,2.0,2.0,60,0.00,,,0.00,Wunderground v.1.15,2013-08-23 21:10:00,
2013-08-23 16:15:00,87.2,71.6,29.55,SSW,198,1.0,4.0,60,0.00,,,0.00,Wunderground v.1.15,2013-08-23 21:15:00,
2013-08-23 16:21:00,87.2,71.6,29.55,SSW,197,2.0,2.0,60,0.00,,,0.00,Wunderground v.1.15,2013-08-23 21:21:00,
2013-08-23 16:26:00,87.4,72.3,29.55,SSW,197,1.0,5.0,61,0.00,,,0.00,Wunderground v.1.15,2013-08-23 21:26:00,
2013-08-23 16:31:00,87.7,71.6,29.55,SSW,197,0.0,1.0,59,0.00,,,0.00,Wunderground v.1.15,2013-08-23 21:31:00,
2013-08-23 16:37:00,87.8,71.7,29.55,SSW,197,1.0,5.0,59,0.00,,,0.00,Wunderground v.1.15,2013-08-23 21:37:00,
2013-08-23 16:42:00,87.8,71.7,29.55,SSW,197,0.0,0.0,59,0.00,,,0.00,Wunderground v.1.15,2013-08-23 21:42:00,
2013-08-23 16:47:00,87.8,71.2,29.55,SSW,197,0.0,0.0,58,0.00,,,0.00,Wunderground v.1.15,2013-08-23 21:47:00,
2013-08-23 16:53:00,87.9,70.2,29.55,SSW,197,0.0,1.0,56,0.00,,,0.00,Wunderground v.1.15,2013-08-23 21:53:00,
2013-08-23 16:58:00,88.0,71.4,29.55,SSW,194,0.0,7.0,58,0.00,,,0.00,Wunderground v.1.15,2013-08-23 21:58:00,
2013-08-23 17:03:00,-999.9,-99.9,29.55,SSW,194,0.0,1.0,57,0.00,,,0.00,Wunderground v.1.15,2013-08-23 22:03:00,
2013-08-23 17:10:00,88.1,70.9,29.55,SSW,194,0.0,6.0,57,0.00,,,0.00,Wunderground v.1.15,2013-08-23 22:10:00,
2013-08-23 17:17:00,87.8,71.2,29.55,SSW,194,1.0,6.0,58,0.00,,,0.00,Wunderground v.1.15,2013-08-23 22:17:00,
2013-08-23 17:23:00,87.6,71.0,29.55,SSW,194,1.0,2.0,58,0.00,,,0.00,Wunderground v.1.15,2013-08-23 22:23:00,
2013-08-23 17:28:00,87.8,70.1,29.55,SSW,193,1.0,2.0,56,0.00,,,0.00,Wunderground v.1.15,2013-08-23 22:28:00,
2013-08-23 17:34:00,87.7,70.1,29.55,SSW,192,1.0,1.0,56,0.00,,,0.00,Wunderground v.1.15,2013-08-23 22:34:00,
2013-08-23 17:39:00,87.6,70.5,29.54,SSW,192,1.0,4.0,57,0.00,,,0.00,Wunderground v.1.15,2013-08-23 22:39:00,
2013-08-23 17:44:00,87.5,70.4,29.54,SSW,192,0.0,0.0,57,0.00,,,0.00,Wunderground v.1.15,2013-08-23 22:44:00,
2013-08-23 17:50:00,87.5,69.9,29.54,SSW,192,1.0,1.0,56,0.00,,,0.00,Wunderground v.1.15,2013-08-23 22:50:00,
2013-08-23 17:55:00,87.5,70.9,29.54,SSW,192,1.0,1.0,58,0.00,,,0.00,Wunderground v.1.15,2013-08-23 22:55:00,
2013-08-23 18:00:00,87.3,70.2,29.54,SSW,192,0.0,0.0,57,0.00,,,0.00,Wunderground v.1.15,2013-08-23 23:00:00,
2013-08-23 18:06:00,87.1,69.5,29.55,SSW,192,0.0,0.0,56,0.00,,,0.00,Wunderground v.1.15,2013-08-23 23:06:00,
2013-08-23 18:11:00,86.7,69.6,29.55,SSW,192,0.0,4.0,57,0.00,,,0.00,Wunderground v.1.15,2013-08-23 23:11:00,
2013-08-23 18:16:00,86.5,69.5,29.54,SSW,192,0.0,4.0,57,0.00,,,0.00,Wunderground v.1.15,2013-08-23 23:16:00,
2013-08-23 18:22:00,86.5,69.5,29.54,SSW,192,0.0,4.0,57,0.00,,,0.00,Wunderground v.1.15,2013-08-23 23:22:00,
2013-08-23 18:27:00,86.4,69.9,29.54,SSW,192,0.0,4.0,58,0.00,,,0.00,Wunderground v.1.15,2013-08-23 23:27:00,
2013-08-23 18:33:00,86.1,70.1,29.54,SSW,192,0.0,3.0,59,0.00,,,0.00,Wunderground v.1.15,2013-08-23 23:33:00,
2013-08-23 18:38:00,86.1,70.1,29.54,SSW,192,0.0,3.0,59,0.00,,,0.00,Wunderground v.1.15,2013-08-23 23:38:00,
2013-08-23 18:43:00,85.4,69.9,29.55,SSW,192,0.0,4.0,60,0.00,,,0.00,Wunderground v.1.15,2013-08-23 23:43:00,
2013-08-23 18:48:00,85.1,69.7,29.55,SSW,192,0.0,4.0,60,0.00,,,0.00,Wunderground v.1.15,2013-08-23 23:48:00,
2013-08-23 18:53:00,84.7,69.8,29.55,SSW,192,0.0,0.0,61,0.00,,,0.00,Wunderground v.1.15,2013-08-23 23:53:00,
2013-08-23 18:59:00,84.5,70.0,29.55,SSW,192,0.0,0.0,62,0.00,,,0.00,Wunderground v.1.15,2013-08-23 23:59:00,
2013-08-23 19:04:00,84.0,-99.9,29.55,SSW,192,0.0,0.0,255,0.00,,,0.00,Wunderground v.1.15,2013-08-24 00:04:00,
2013-08-23 19:10:00,83.6,69.7,29.55,SSW,192,0.0,0.0,63,0.00,,,0.00,Wunderground v.1.15,2013-08-24 00:10:00,
2013-08-23 19:15:00,83.1,69.7,29.55,SSW,192,0.0,0.0,64,0.00,,,0.00,Wunderground v.1.15,2013-08-24 00:15:00,
2013-08-23 19:20:00,82.9,69.9,29.55,SSW,192,0.0,0.0,65,0.00,,,0.00,Wunderground v.1.15,2013-08-24 00:20:00,
2013-08-23 19:25:00,82.4,69.9,29.55,SSW,192,0.0,1.0,66,0.00,,,0.00,Wunderground v.1.15,2013-08-24 00:25:00,
2013-08-23 19:46:00,-90.0,-95.1,29.56,SSW,192,0.0,1.0,67,0.00,,,0.00,Wunderground v.1.15,2013-08-24 00:46:00,
2013-08-23 19:51:00,-90.0,-99.9,29.57,SSW,192,0.0,0.0,255,0.00,,,0.00,Wunderground v.1.15,2013-08-24 00:51:00,
2013-08-23 19:56:00,80.6,69.1,29.57,SSW,192,0.0,0.0,68,0.00,,,0.00,Wunderground v.1.15,2013-08-24 00:56:00,
2013-08-23 20:02:00,80.7,69.6,29.57,SSW,192,0.0,0.0,69,0.00,,,0.00,Wunderground v.1.15,2013-08-24 01:02:00,
2013-08-23 20:07:00,80.2,69.1,29.57,SSW,192,0.0,0.0,69,0.00,,,0.00,Wunderground v.1.15,2013-08-24 01:07:00,
2013-08-23 20:13:00,80.1,69.0,29.57,SSW,192,0.0,0.0,69,0.00,,,0.00,Wunderground v.1.15,2013-08-24 01:13:00,
2013-08-23 20:18:00,79.5,69.3,29.57,SSW,192,0.0,0.0,71,0.00,,,0.00,Wunderground v.1.15,2013-08-24 01:18:00,
2013-08-23 20:23:00,79.4,69.2,29.57,SSW,192,0.0,0.0,71,0.00,,,0.00,Wunderground v.1.15,2013-08-24 01:23:00,
2013-08-23 20:29:00,79.0,69.2,29.57,SSW,192,0.0,0.0,72,0.00,,,0.00,Wunderground v.1.15,2013-08-24 01:29:00,
2013-08-23 20:34:00,78.8,69.4,29.57,SSW,192,0.0,3.0,73,0.00,,,0.00,Wunderground v.1.15,2013-08-24 01:34:00,
2013-08-23 20:39:00,78.7,69.3,29.58,SSW,192,0.0,3.0,73,0.00,,,0.00,Wunderground v.1.15,2013-08-24 01:39:00,
2013-08-23 20:45:00,-999.9,-99.9,29.58,SSW,192,0.0,1.0,74,0.00,,,0.00,Wunderground v.1.15,2013-08-24 01:45:00,
2013-08-23 20:50:00,78.3,69.3,29.58,SSW,192,0.0,1.0,74,0.00,,,0.00,Wunderground v.1.15,2013-08-24 01:50:00,
2013-08-23 20:55:00,78.3,68.5,29.58,SSW,192,0.0,0.0,72,0.00,,,0.00,Wunderground v.1.15,2013-08-24 01:55:00,
2013-08-23 21:00:00,78.2,68.8,29.58,SSW,192,0.0,2.0,73,0.00,,,0.00,Wunderground v.1.15,2013-08-24 02:00:00,
2013-08-23 21:06:00,78.0,69.0,29.59,SSW,192,0.0,2.0,74,0.00,,,0.00,Wunderground v.1.15,2013-08-24 02:06:00,
2013-08-23 21:12:00,77.7,69.1,29.59,SSW,192,0.0,0.0,75,0.00,,,0.00,Wunderground v.1.15,2013-08-24 02:12:00,
2013-08-23 21:17:00,77.6,69.0,29.59,SSW,192,0.0,1.0,75,0.00,,,0.00,Wunderground v.1.15,2013-08-24 02:17:00,
2013-08-23 21:22:00,77.4,69.2,29.59,SSW,192,0.0,0.0,76,0.00,,,0.00,Wunderground v.1.15,2013-08-24 02:22:00,
2013-08-23 21:28:00,77.3,69.1,29.59,SSW,192,0.0,0.0,76,0.00,,,0.00,Wunderground v.1.15,2013-08-24 02:28:00,
2013-08-23 21:46:00,76.8,69.0,29.60,SSW,192,0.0,0.0,77,0.00,,,0.00,Wunderground v.1.15,2013-08-24 02:46:00,
2013-08-23 21:52:00,76.7,68.9,29.60,SSW,192,0.0,0.0,77,0.00,,,0.00,Wunderground v.1.15,2013-08-24 02:52:00,
2013-08-23 21:57:00,76.6,69.2,29.60,SSW,192,0.0,0.0,78,0.00,,,0.00,Wunderground v.1.15,2013-08-24 02:57:00,
2013-08-23 22:04:00,76.4,69.0,29.60,SSW,192,0.0,0.0,78,0.00,,,0.00,Wunderground v.1.15,2013-08-24 03:04:00,
2013-08-23 22:09:00,76.4,69.0,29.60,SSW,192,0.0,0.0,78,0.00,,,0.00,Wunderground v.1.15,2013-08-24 03:09:00,
2013-08-23 22:15:00,76.2,69.2,29.60,SSW,192,0.0,0.0,79,0.00,,,0.00,Wunderground v.1.15,2013-08-24 03:15:00,
2013-08-23 22:20:00,76.1,69.1,29.60,SSW,192,0.0,0.0,79,0.00,,,0.00,Wunderground v.1.15,2013-08-24 03:20:00,
2013-08-23 22:25:00,76.3,68.9,29.60,SSW,192,0.0,0.0,78,0.00,,,0.00,Wunderground v.1.15,2013-08-24 03:25:00,
2013-08-23 22:31:00,76.2,68.8,29.60,SSW,192,0.0,0.0,78,0.00,,,0.00,Wunderground v.1.15,2013-08-24 03:31:00,
2013-08-23 22:36:00,75.9,68.9,29.60,SSW,192,0.0,2.0,79,0.00,,,0.00,Wunderground v.1.15,2013-08-24 03:36:00,
2013-08-23 22:41:00,75.9,68.9,29.60,SSW,192,0.0,0.0,79,0.00,,,0.00,Wunderground v.1.15,2013-08-24 03:41:00,
2013-08-23 22:47:00,75.8,68.4,29.60,SSW,192,0.0,0.0,78,0.00,,,0.00,Wunderground v.1.15,2013-08-24 03:47:00,
2013-08-23 22:52:00,75.5,68.9,29.60,SSW,192,0.0,0.0,80,0.00,,,0.00,Wunderground v.1.15,2013-08-24 03:52:00,
2013-08-23 22:57:00,75.4,68.8,29.60,SSW,192,0.0,0.0,80,0.00,,,0.00,Wunderground v.1.15,2013-08-24 03:57:00,
2013-08-23 23:02:00,75.3,69.1,29.59,SSW,192,0.0,0.0,81,0.00,,,0.00,Wunderground v.1.15,2013-08-24 04:02:00,
2013-08-23 23:03:00,75.3,69.1,29.60,SSW,192,0.0,0.0,81,0.00,,,0.00,Wunderground v.1.15,2013-08-24 04:03:00,
2013-08-23 23:05:00,75.2,69.0,29.60,SSW,192,0.0,0.0,81,0.00,,,0.00,Wunderground v.1.15,2013-08-24 04:05:00,
2013-08-23 23:10:00,75.0,68.8,29.59,SSW,192,0.0,0.0,81,0.00,,,0.00,Wunderground v.1.15,2013-08-24 04:10:00,
2013-08-23 23:15:00,74.9,68.7,29.60,SSW,192,0.0,0.0,81,0.00,,,0.00,Wunderground v.1.15,2013-08-24 04:15:00,
2013-08-23 23:18:00,74.8,68.6,29.60,SSW,192,0.0,0.0,81,0.00,,,0.00,Wunderground v.1.15,2013-08-24 04:18:00,
2013-08-23 23:23:00,74.7,68.8,29.60,SSW,192,0.0,0.0,82,0.00,,,0.00,Wunderground v.1.15,2013-08-24 04:23:00,
2013-08-23 23:28:00,74.6,68.4,29.60,SSW,192,0.0,0.0,81,0.00,,,0.00,Wunderground v.1.15,2013-08-24 04:28:00,
2013-08-23 23:41:00,74.3,68.4,29.60,SSW,192,0.0,0.0,82,0.00,,,0.00,Wunderground v.1.15,2013-08-24 04:41:00,
2013-08-23 23:47:00,74.2,68.3,29.59,SSW,192,0.0,2.0,82,0.00,,,0.00,Wunderground v.1.15,2013-08-24 04:47:00,
2013-08-23 23:52:00,74.2,68.3,29.59,SSW,192,0.0,0.0,82,0.00,,,0.00,Wunderground v.1.15,2013-08-24 04:52:00,
2013-08-23 23:57:00,74.6,68.7,29.59,SSW,192,0.0,0.0,82,0.00,,,0.00,Wunderground v.1.15,2013-08-24 04:57:00,